sat.trackr.live / text

‹ back to catalog

STARLINK-37549

NORAD 69351 · 2026-122Y

PAYLOAD ACTIVE UNKNOWN

§ Identity

Operator
Country
US
Launch date
2026-06-03
Launch site
AFWTR
Launch vehicle
Mass (kg)
RCS (m²)

Purposes: comms

External: N2YO · Heavens-Above · Gunter

§ Orbital elements

Epoch: 2026-09-19T12:32:55.612032Z

Period
93.91 min
Inclination
97.2820°
Eccentricity
0.0001144
Mean motion
15.33447272 rev/d
Perigee alt
464.8 km
Apogee alt
466.3 km
Semi-major
6,843.7 km
B*
2.9155e-4
RAAN
291.2163°
Arg perigee
96.4651°
Mean anomaly
263.6722°
Rev number
1,665

§ Raw data

STARLINK-375491 69351U 26122Y   26262.52286588  .00009350  00000+0  29155-3 0  99902 69351  97.2820 291.2163 0001144  96.4651 263.6722 15.33447272 16653

JSON: /api/v1/satellites/69351 · /tle

For live sub-satellite position, see the globe view (requires WebGL).

§ Visibility from observer

Set your observer location to see the next 7 days of passes ≥ 10°. The values pass through the URL so the page stays shareable.

No JS? Fill the form by hand. The geolocation button needs JavaScript.